Location: Franzen
(48.6167°N, 15.3833°E)
Time: 10:01:46
(UTC+00:00)

Meteor 1-4 Rocket - Pass Details

Date: 22 April 2021
Orbit: 448 x 498 km, 81.2° (Epoch: 16 May)

Event Time Altitude Azimuth Distance (km) Brightness Sun altitude
Exits shadow 19:16:26 16° 96° (E) 1,275 4.2 -12.0°
Maximum altitude 19:16:46 16° 89° (E) 1,268 4.2 -12.0°
Drops below altitude 10° 19:19:02 10° 49° (NE) 1,621 5.1 -12.3°
Sets 19:21:42 0° 27° (NNE) 2,514 6.3 -12.7°
